Content
SEND FEEDBACK

Daily
Averages
Monthly
Summary
United States of America

MALDEN, MISSOURI


Home > North America > United States > Missouri
Elevation: 295 feet     Latitude: 36 36N     Longitude: 089 59W

WEATHER
 
SELECT A DAY
Number of Records: 210,142;   Date Range: 1/1/95 - 9/29/14
 
SHARE

PRINT THIS DATA

[ ← Previous Day ]
WEATHER ALMANAC - OCTOBER 15, 2013
[ Next Day → ]
[ °C ]   °F
Weather ElementAverageHighLow
Temperature66.9 °F69.1 °F (8:53 am)64 °F (1:53 am)
Dewpoint63.7 °F66 °F (9:53 pm)60.1 °F (1:53 am)
Humidity89.3 %94 % (10:38 am)78 % (8:53 am)
Barometer29.96 in30.01 in (1:53 am)29.91 in (3:53 pm)
Wind Speed3.7 mph10.4 mph (12:53 pm)
Weather ElementAverage
Visibility3.6 mi
Wind DirectionESE (127.8 °)

Weather ElementTotal
Precipitation1.93 in
Cooling Degree Days1.6 (Base 65)
Growing Degree Days16.6 (Base 50)
Averaged from 55 records on October 15, 2013
WEATHER CONDITIONS BREAKOUT
WIND DIRECTION BREAKOUT
WEATHER BY HOUR - OCTOBER 15, 2013
[ °C ]   °F
Local TimeTemperatureDewpointHumidityBarometerVisibilityWind DirectionWind SpeedGust SpeedPrecipitationEventsConditions
1:53 AM64.0 °F60.1 °F87 %30.01 in6.0 miCalmMostly Cloudy
2:53 AM64.0 °F60.1 °F87 %29.99 in6.0 miCalm0.00 inOvercast
3:53 AM64.0 °F60.1 °F87 %30.00 in5.0 miCalmOvercast
4:53 AM64.9 °F60.1 °F84 %29.97 in6.0 miCalmHaze
5:53 AM64.9 °F61.0 °F87 %29.96 in6.0 miSE (130°)3.5 mphOvercast
6:53 AM66.0 °F61.0 °F84 %29.96 in7.0 miSSE (160°)3.5 mphOvercast
7:53 AM68.0 °F62.1 °F81 %29.96 in7.0 miSouth (170°)4.6 mphOvercast
8:53 AM69.1 °F62.1 °F78 %29.97 in9.0 miSouth (180°)9.2 mph0.00 inOvercast
9:51 AM68.0 °F64.4 °F88 %29.99 in1.8 miCalm0.04 inRainLight Rain
9:52 AM68.0 °F64.0 °F87 %29.98 in1.8 miCalm0.05 inRainRain
9:59 AM68.0 °F64.4 °F88 %29.99 in2.5 miWest (280°)3.5 mph0.01 inRainLight Rain
10:38 AM66.2 °F64.4 °F94 %30.00 in1.8 miCalm0.07 inRainLight Rain
10:53 AM66.9 °F64.0 °F90 %30.00 in1.2 miCalm0.09 inRainRain
11:29 AM66.2 °F64.4 °F94 %30.00 in0.5 miSouth (180°)3.5 mph0.17 inFog-RainHeavy Rain
11:48 AM66.2 °F64.4 °F94 %30.00 in1.5 miSouth (180°)4.6 mph0.35 inRainRain
11:53 AM66.9 °F64.0 °F90 %29.99 in1.8 miSSE (160°)4.6 mph0.37 inRainRain
12:01 PM66.2 °F64.4 °F94 %29.99 in2.0 miSSE (150°)6.9 mph0.02 inRainRain
12:19 PM68.0 °F64.4 °F88 %29.97 in3.0 miSSE (160°)6.9 mph0.06 inRainLight Rain
12:30 PM68.0 °F64.4 °F88 %29.98 in3.0 miSSE (150°)4.6 mph0.07 inRainLight Rain
12:38 PM68.0 °F64.4 °F88 %29.97 in2.5 miSE (140°)5.8 mph0.07 inRainLight Rain
12:53 PM68.0 °F64.9 °F90 %29.96 in3.0 miSSE (160°)10.4 mph0.08 inRainLight Rain
1:53 PM69.1 °F64.9 °F87 %29.93 in5.0 miSouth (180°)8.1 mph0.04 inRainLight Rain
2:53 PM69.1 °F64.9 °F87 %29.93 in8.0 miSouth (170°)6.9 mph0.01 inOvercast
3:14 PM68.0 °F64.4 °F88 %29.93 in2.0 miSouth (180°)5.8 mph0.03 inRainLight Rain
3:19 PM68.0 °F64.4 °F88 %29.93 in3.0 miSSE (160°)5.8 mph0.03 inRainLight Rain
3:26 PM68.0 °F64.4 °F88 %29.93 in5.0 miSouth (170°)4.6 mph0.03 inRainLight Rain
3:53 PM68.0 °F64.9 °F90 %29.91 in6.0 miSSE (160°)4.6 mph0.03 inOvercast
4:28 PM66.2 °F64.4 °F94 %29.93 in2.0 miSSE (160°)4.6 mph0.00 inRainLight Rain
4:36 PM66.2 °F64.4 °F94 %29.93 in1.8 miSSE (150°)4.6 mph0.00 inRainLight Rain
4:53 PM66.9 °F64.0 °F90 %29.93 in1.8 miSSE (150°)4.6 mph0.01 inRainLight Rain
5:02 PM66.2 °F64.4 °F94 %29.93 in1.8 miSSE (160°)4.6 mph0.00 inOvercast
5:17 PM66.2 °F64.4 °F94 %29.93 in1.8 miSouth (170°)3.5 mph0.00 inRainLight Rain
5:36 PM66.2 °F64.4 °F94 %29.93 in1.5 miSouth (190°)3.5 mph0.01 inRainLight Rain
5:49 PM66.2 °F64.4 °F94 %29.93 in1.5 miCalm0.02 inRainLight Rain
5:53 PM66.9 °F64.0 °F90 %29.92 in1.5 miSSE (150°)3.5 mph0.02 inRainLight Rain
6:19 PM66.2 °F64.4 °F94 %29.92 in3.0 miCalm0.01 inRainLight Rain
6:44 PM66.2 °F64.4 °F94 %29.93 in2.5 miCalm0.02 inRainLight Rain
6:53 PM68.0 °F64.9 °F90 %29.93 in3.0 miCalm0.02 inRainLight Rain
7:19 PM66.2 °F64.4 °F94 %29.93 in2.0 miCalm0.01 inRainLight Rain
7:29 PM68.0 °F64.4 °F88 %29.94 in2.5 miCalm0.01 inRainLight Rain
7:42 PM68.0 °F64.4 °F88 %29.95 in4.0 miCalm0.02 inRainLight Rain
7:53 PM68.0 °F64.9 °F90 %29.94 in1.8 miCalm0.04 inRainLight Rain
8:00 PM68.0 °F64.4 °F88 %29.95 in2.5 miCalm0.00 inRainLight Rain
8:07 PM68.0 °F64.4 °F88 %29.95 in3.0 miCalm0.00 inRainLight Rain
8:16 PM68.0 °F64.4 °F88 %29.95 in2.5 miCalm0.01 inRainLight Rain
8:39 PM68.0 °F64.4 °F88 %29.95 in3.0 miCalm0.02 inOvercast
8:53 PM68.0 °F64.9 °F90 %29.95 in3.0 miSSW (200°)3.5 mph0.02 inOvercast
9:53 PM68.0 °F66.0 °F93 %29.96 in3.0 miSW (230°)3.5 mphOvercast
10:36 PM66.2 °F62.6 °F88 %29.97 in2.0 miNW (320°)9.2 mph0.01 inRainLight Rain
10:42 PM66.2 °F62.6 °F88 %29.96 in3.0 miNW (320°)9.2 mph0.01 inRainLight Rain
10:51 PM66.2 °F62.6 °F88 %29.97 in6.0 miNW (320°)6.9 mph0.01 inRainLight Rain
10:53 PM66.0 °F63.0 °F90 %29.96 in6.0 miNW (320°)6.9 mph0.01 inRainLight Rain
11:17 PM66.2 °F62.6 °F88 %29.96 in5.0 miNNW (330°)10.4 mph0.01 inRainLight Rain
11:38 PM66.2 °F62.6 °F88 %29.96 in8.0 miNW (320°)8.1 mph0.01 inOvercast
11:53 PM64.9 °F61.0 °F87 %29.95 in10.0 miNW (320°)8.1 mph0.01 inOvercast
Hourly data recorded from KPOF, located miles away from Malden, Missouri







STORIES FROM OUR PARTNERS